Weather History for K7L2 - March, 2014

Change the Weather History Date:

Friday, March 14, 2014

  Actual Average (KBIS) Record (KBIS)
Temperature  
Mean Temperature 37 °F 29 °F  
Max Temperature 44 °F 39 °F 72 °F (1935)
Min Temperature 30 °F 19 °F -35 °F (1897)
Degree Days  
Heating Degree Days 28 36  
Month to date heating degree days 546  
Since 1 July heating degree days 6977  
Cooling Degree Days 0 0  
Month to date cooling degree days 0  
Year to date cooling degree days 0  
Moisture  
Dew Point 30 °F    
Average Humidity 84    
Maximum Humidity 100    
Minimum Humidity 49    
Precipitation  
Precipitation 0.00 in 0.02 in 0.58 in (1919)
Month to date precipitation 0.35  
Year to date precipitation 1.29  
Snow  
Snow 0.00 in 0.30 in 6.10 in (1953)
Month to date snowfall 4.4  
Since 1 July snowfall 41.9  
Snow Depth -    
Sea Level Pressure  
Sea Level Pressure 29.82 in    
Wind  
Wind Speed 11 mph (NW)    
Max Wind Speed 21 mph    
Max Gust Speed 28 mph    
Visibility 10 miles    
Events      
T = Trace of Precipitation, MM = Missing Value Source: NWS Daily Summary

Daily Weather History Graph

Daily Weather History Graph

Search for Another Location

Airport or City:

Trip Planner

Search our weather history database for the weather conditions in past years. The results will help you decide how hot, cold, wet, or windy it might be!

Date:

Astronomy

Mar. 14, 2014 Rise Set
Actual Time 7:55 AM CDT 7:45 PM CDT
Civil Twilight 7:25 AM CDT 8:15 PM CDT
Nautical Twilight 6:50 AM CDT 8:50 PM CDT
Astronomical Twilight 6:15 AM CDT 9:25 PM CDT
Moon 6:05 PM CDT (3/14) 6:41 AM CDT (3/14)
Length of Visible Light 12h 49m
Length of Day
11h 49m
Waxing Gibbous, 96% of the Moon is Illuminated
Mar 14
Waxing Gibbous
Mar 16
Full
Mar 23
Last Quarter
Mar 30
New
Apr 7
First Quarter

Hourly Weather History & Observations

Time (CDT) Temp. Windchill Dew Point Humidity Pressure Visibility Wind Dir Wind Speed Gust Speed Precip Events Conditions
12:15 AM 33.8 °F 26.4 °F 32.0 °F 93% 29.72 in 10.0 mi WNW 9.2 mph - N/A   Clear
12:35 AM 33.8 °F 27.0 °F 32.0 °F 93% 29.72 in 10.0 mi WNW 8.1 mph - N/A   Clear
12:55 AM 33.8 °F 26.4 °F 32.0 °F 93% 29.72 in 10.0 mi WNW 9.2 mph - N/A   Clear
1:15 AM 32.0 °F 25.6 °F 32.0 °F 100% 29.72 in 10.0 mi WNW 6.9 mph - N/A   Clear
1:35 AM 32.0 °F 24.2 °F 32.0 °F 100% 29.72 in 10.0 mi West 9.2 mph - N/A   Clear
1:55 AM 32.0 °F 23.6 °F 32.0 °F 100% 29.72 in 10.0 mi West 10.4 mph - N/A   Clear
2:15 AM 32.0 °F 23.6 °F 32.0 °F 100% 29.73 in 10.0 mi West 10.4 mph - N/A   Clear
2:35 AM 32.0 °F 23.0 °F 32.0 °F 100% 29.74 in 10.0 mi West 11.5 mph - N/A   Clear
2:55 AM 32.0 °F 23.0 °F 32.0 °F 100% 29.74 in 10.0 mi West 11.5 mph 17.3 mph N/A   Clear
3:15 AM 32.0 °F 23.0 °F 32.0 °F 100% 29.75 in 10.0 mi West 11.5 mph 17.3 mph N/A   Clear
3:35 AM 32.0 °F 23.6 °F 32.0 °F 100% 29.75 in 10.0 mi West 10.4 mph - N/A   Clear
3:55 AM 32.0 °F 24.2 °F 32.0 °F 100% 29.75 in 10.0 mi West 9.2 mph - N/A   Clear
4:15 AM 32.0 °F 23.0 °F 32.0 °F 100% 29.75 in 10.0 mi WNW 11.5 mph - N/A   Clear
4:35 AM 32.0 °F 23.6 °F 32.0 °F 100% 29.75 in 10.0 mi West 10.4 mph - N/A   Scattered Clouds
4:55 AM 32.0 °F 24.2 °F 32.0 °F 100% 29.75 in 10.0 mi West 9.2 mph - N/A   Scattered Clouds
5:15 AM 32.0 °F 24.2 °F 32.0 °F 100% 29.76 in 10.0 mi West 9.2 mph - N/A   Mostly Cloudy
5:35 AM 32.0 °F 23.6 °F 32.0 °F 100% 29.76 in 10.0 mi West 10.4 mph - N/A   Mostly Cloudy
5:55 AM 32.0 °F 23.0 °F 32.0 °F 100% 29.76 in 10.0 mi WNW 11.5 mph 19.6 mph N/A   Mostly Cloudy
6:15 AM 32.0 °F 21.6 °F 30.2 °F 93% 29.76 in 10.0 mi WNW 15.0 mph 18.4 mph N/A   Mostly Cloudy
6:35 AM 32.0 °F 22.5 °F 30.2 °F 93% 29.77 in 10.0 mi WNW 12.7 mph - N/A   Scattered Clouds
6:55 AM 32.0 °F 23.0 °F 30.2 °F 93% 29.78 in 10.0 mi WNW 11.5 mph 18.4 mph N/A   Scattered Clouds
7:15 AM 32.0 °F 22.1 °F 30.2 °F 93% 29.79 in 10.0 mi WNW 13.8 mph - N/A   Mostly Cloudy
7:35 AM 32.0 °F 22.5 °F 30.2 °F 93% 29.79 in 10.0 mi WNW 12.7 mph 16.1 mph N/A   Overcast
7:55 AM 30.2 °F 20.8 °F 28.4 °F 93% 29.80 in 10.0 mi NW 11.5 mph - N/A   Scattered Clouds
8:15 AM 30.2 °F 20.8 °F 28.4 °F 93% 29.80 in 10.0 mi WNW 11.5 mph - N/A   Clear
8:35 AM 30.2 °F 19.8 °F 28.4 °F 93% 29.81 in 10.0 mi WNW 13.8 mph - N/A   Clear
8:55 AM 32.0 °F 21.6 °F 28.4 °F 87% 29.81 in 10.0 mi WNW 15.0 mph - N/A   Clear
9:15 AM 32.0 °F 20.8 °F 28.4 °F 87% 29.81 in 10.0 mi WNW 17.3 mph - N/A   Clear
9:35 AM 32.0 °F 20.5 °F 28.4 °F 87% 29.82 in 10.0 mi WNW 18.4 mph 25.3 mph N/A   Clear
9:55 AM 33.8 °F 22.5 °F 28.4 °F 81% 29.82 in 10.0 mi WNW 19.6 mph 25.3 mph N/A   Clear
10:15 AM 35.6 °F 24.8 °F 30.2 °F 81% 29.82 in 10.0 mi NW 19.6 mph 27.6 mph N/A   Clear
10:35 AM 35.6 °F 24.5 °F 30.2 °F 81% 29.83 in 10.0 mi NW 20.7 mph 26.5 mph N/A   Clear
10:55 AM 37.4 °F 26.9 °F 30.2 °F 75% 29.83 in 10.0 mi NW 20.7 mph 25.3 mph N/A   Clear
11:15 AM 37.4 °F 26.9 °F 30.2 °F 75% 29.83 in 10.0 mi NW 20.7 mph 24.2 mph N/A   Clear
11:35 AM 39.2 °F 29.6 °F 30.2 °F 70% 29.83 in 10.0 mi NW 19.6 mph 25.3 mph N/A   Clear
11:55 AM 39.2 °F 30.2 °F 30.2 °F 70% 29.83 in 10.0 mi NW 17.3 mph 23.0 mph N/A   Clear
12:15 PM 41.0 °F 33.1 °F 30.2 °F 65% 29.84 in 10.0 mi NW 15.0 mph 20.7 mph N/A   Partly Cloudy
12:35 PM 41.0 °F 33.5 °F 30.2 °F 65% 29.84 in 10.0 mi NW 13.8 mph 21.9 mph N/A   Scattered Clouds
12:55 PM 41.0 °F 33.5 °F 30.2 °F 65% 29.85 in 10.0 mi NW 13.8 mph - N/A   Mostly Cloudy
1:15 PM 42.8 °F 35.8 °F 28.4 °F 57% 29.85 in 10.0 mi WNW 13.8 mph 19.6 mph N/A   Mostly Cloudy
1:35 PM 41.0 °F 34.3 °F 28.4 °F 61% 29.84 in 10.0 mi NNW 11.5 mph - N/A   Mostly Cloudy
1:55 PM 42.8 °F 37.5 °F 30.2 °F 61% 29.84 in 10.0 mi North 9.2 mph - N/A   Scattered Clouds
2:15 PM 44.6 °F 38.8 °F 30.2 °F 57% 29.84 in 10.0 mi NW 11.5 mph 18.4 mph N/A   Clear
2:35 PM 44.6 °F 39.2 °F 28.4 °F 53% 29.84 in 10.0 mi NW 10.4 mph 16.1 mph N/A   Partly Cloudy
2:55 PM 44.6 °F 38.8 °F 28.4 °F 53% 29.83 in 10.0 mi NNW 11.5 mph 19.6 mph N/A   Scattered Clouds
3:15 PM 44.6 °F 39.2 °F 28.4 °F 53% 29.83 in 10.0 mi NNW 10.4 mph - N/A   Mostly Cloudy
3:35 PM 44.6 °F 37.8 °F 28.4 °F 53% 29.83 in 10.0 mi NNW 15.0 mph 18.4 mph N/A   Scattered Clouds
3:55 PM 44.6 °F 38.1 °F 28.4 °F 53% 29.83 in 10.0 mi NW 13.8 mph 19.6 mph N/A   Scattered Clouds
4:15 PM 44.6 °F 37.8 °F 28.4 °F 53% 29.83 in 10.0 mi North 15.0 mph 19.6 mph N/A   Scattered Clouds
4:35 PM 44.6 °F 40.7 °F 26.6 °F 49% 29.83 in 10.0 mi NNW 6.9 mph - N/A   Scattered Clouds
4:55 PM 44.6 °F 38.8 °F 30.2 °F 57% 29.83 in 10.0 mi North 11.5 mph - N/A   Scattered Clouds
5:15 PM 44.6 °F 38.8 °F 28.4 °F 53% 29.83 in 10.0 mi North 11.5 mph 16.1 mph N/A   Partly Cloudy
5:35 PM 44.6 °F 40.2 °F 28.4 °F 53% 29.83 in 10.0 mi NNE 8.1 mph - N/A   Clear
5:55 PM 42.8 °F 37.0 °F 30.2 °F 61% 29.84 in 10.0 mi NNE 10.4 mph - N/A   Clear
6:15 PM 41.0 °F 34.7 °F 30.2 °F 65% 29.84 in 10.0 mi NE 10.4 mph - N/A   Clear
6:35 PM 39.2 °F 33.0 °F 32.0 °F 75% 29.85 in 10.0 mi NE 9.2 mph - N/A   Clear
6:55 PM 39.2 °F 33.0 °F 32.0 °F 75% 29.86 in 10.0 mi NE 9.2 mph - N/A   Clear
7:15 PM 37.4 °F 32.1 °F 32.0 °F 81% 29.87 in 10.0 mi NE 6.9 mph - N/A   Clear
7:35 PM 35.6 °F 28.6 °F 32.0 °F 87% 29.88 in 10.0 mi ENE 9.2 mph - N/A   Clear
7:55 PM 33.8 °F 27.0 °F 32.0 °F 93% 29.88 in 10.0 mi ENE 8.1 mph - N/A   Clear
8:15 PM 32.0 °F 24.8 °F 32.0 °F 100% 29.88 in 10.0 mi East 8.1 mph - N/A   Clear
8:35 PM 32.0 °F 23.6 °F 32.0 °F 100% 29.88 in 10.0 mi East 10.4 mph - N/A   Clear
8:55 PM 32.0 °F 23.0 °F 32.0 °F 100% 29.88 in 10.0 mi East 11.5 mph - N/A   Partly Cloudy
9:15 PM 32.0 °F 22.5 °F 32.0 °F 100% 29.88 in 10.0 mi East 12.7 mph 17.3 mph N/A   Clear
9:35 PM 32.0 °F 23.0 °F 32.0 °F 100% 29.88 in 10.0 mi East 11.5 mph 16.1 mph N/A   Clear
9:55 PM 32.0 °F 23.6 °F 32.0 °F 100% 29.89 in 10.0 mi East 10.4 mph - N/A   Clear
10:15 PM 30.2 °F 20.8 °F 30.2 °F 100% 29.89 in 10.0 mi East 11.5 mph - N/A   Mostly Cloudy
10:35 PM 30.2 °F 22.6 °F 30.2 °F 100% 29.90 in 10.0 mi East 8.1 mph - N/A   Mostly Cloudy
10:55 PM 30.2 °F 22.6 °F 30.2 °F 100% 29.90 in 10.0 mi East 8.1 mph - N/A   Partly Cloudy
11:15 PM 30.2 °F 22.6 °F 30.2 °F 100% 29.91 in 10.0 mi ESE 8.1 mph - N/A   Partly Cloudy
11:35 PM 30.2 °F 22.6 °F 30.2 °F 100% 29.91 in 10.0 mi East 8.1 mph - N/A   Clear
11:55 PM 30.2 °F 21.3 °F 30.2 °F 100% 29.91 in 10.0 mi ESE 10.4 mph - N/A   Clear